| time (UTC) | temp C | wind direction | speed KPH | gust KPH | rain 1hr cm | rain 24hr cm | rain mn cm | humidity % | barometer mb |
| 20260507075857 | 11 | 191 | 3.2 | 4.8 | 0.00 | 0.00 | 0.00 | 92 | 1020.8 |
| 20260507075353 | 11 | 265 | 1.6 | 3.2 | 0.00 | 0.00 | 0.00 | 92 | 1020.9 |
| 20260507074850 | 11 | 254 | 1.6 | 1.6 | 0.00 | 0.00 | 0.00 | 92 | 1020.8 |
| 20260507074347 | 11 | 222 | 1.6 | 1.6 | 0.00 | 0.00 | 0.00 | 92 | 1020.9 |
| 20260507073844 | 11 | 210 | 4.8 | 4.8 | 0.00 | 0.00 | 0.00 | 92 | 1020.8 |
| 20260507073341 | 11 | 233 | 4.8 | 8.0 | 0.00 | 0.00 | 0.00 | 92 | 1020.6 |
| 20260507072838 | 11 | 204 | 9.7 | 11.3 | 0.00 | 0.00 | 0.00 | 92 | 1020.7 |
| 20260507072336 | 11 | 242 | 1.6 | 3.2 | 0.00 | 0.00 | 0.00 | 92 | 1020.6 |
| 20260507071833 | 11 | 223 | 4.8 | 4.8 | 0.00 | 0.00 | 0.00 | 92 | 1020.9 |
| 20260507071330 | 11 | 220 | 1.6 | 1.6 | 0.00 | 0.00 | 0.00 | 92 | 1020.6 |
| 20260507070826 | 11 | 214 | 9.7 | 11.3 | 0.00 | 0.00 | 0.00 | 92 | 1020.7 |
| 20260507070324 | 11 | 204 | 4.8 | 4.8 | 0.00 | 0.00 | 0.00 | 92 | 1020.6 |
| 20260507065820 | 11 | 243 | 1.6 | 3.2 | 0.00 | 0.00 | 0.00 | 92 | 1020.6 |
| 20260507065317 | 11 | 188 | 12.9 | 16.1 | 0.00 | 0.00 | 0.00 | 91 | 1020.9 |
| 20260507064814 | 11 | 176 | 6.4 | 8.0 | 0.00 | 0.00 | 0.00 | 91 | 1020.7 |
| 20260507064313 | 11 | 201 | 6.4 | 9.7 | 0.00 | 0.00 | 0.00 | 91 | 1020.6 |
| 20260507063810 | 11 | 196 | 9.7 | 11.3 | 0.00 | 0.00 | 0.00 | 91 | 1020.6 |
| 20260507063307 | 11 | 213 | 1.6 | 3.2 | 0.00 | 0.00 | 0.00 | 91 | 1020.6 |
| 20260507062804 | 11 | 196 | 3.2 | 4.8 | 0.00 | 0.00 | 0.00 | 91 | 1020.6 |
| 20260507062301 | 11 | 202 | 11.3 | 11.3 | 0.00 | 0.00 | 0.00 | 91 | 1020.6 |
| 20260507061759 | 11 | 200 | 3.2 | 4.8 | 0.00 | 0.00 | 0.00 | 91 | 1020.7 |
| 20260507061256 | 11 | 194 | 4.8 | 4.8 | 0.00 | 0.00 | 0.00 | 91 | 1020.8 |
| 20260507060754 | 11 | 215 | 8.0 | 11.3 | 0.00 | 0.00 | 0.00 | 90 | 1020.6 |
| 20260507060251 | 11 | 217 | 4.8 | 4.8 | 0.00 | 0.00 | 0.00 | 90 | 1020.8 |
| 20260507055747 | 11 | 171 | 8.0 | 9.7 | 0.00 | 0.00 | 0.00 | 90 | 1020.8 |
| 20260507055243 | 11 | 201 | 11.3 | 11.3 | 0.00 | 0.00 | 0.00 | 90 | 1020.6 |
| 20260507054739 | 11 | 208 | 4.8 | 8.0 | 0.00 | 0.00 | 0.00 | 90 | 1020.8 |
| 20260507054236 | 11 | 201 | 8.0 | 8.0 | 0.00 | 0.00 | 0.00 | 90 | 1020.7 |
| 20260507053733 | 12 | 190 | 6.4 | 9.7 | 0.00 | 0.00 | 0.00 | 90 | 1020.8 |
| 20260507053231 | 12 | 206 | 3.2 | 3.2 | 0.00 | 0.00 | 0.00 | 89 | 1020.9 |
| 20260507052730 | 12 | 226 | 1.6 | 1.6 | 0.00 | 0.00 | 0.00 | 89 | 1020.7 |
| 20260507052225 | 12 | 212 | 1.6 | 3.2 | 0.00 | 0.00 | 0.00 | 89 | 1020.7 |
| 20260507051724 | 12 | 200 | 6.4 | 8.0 | 0.00 | 0.00 | 0.00 | 89 | 1020.8 |
| 20260507051220 | 12 | 238 | 4.8 | 8.0 | 0.00 | 0.00 | 0.00 | 89 | 1020.7 |
| 20260507050717 | 12 | 204 | 6.4 | 8.0 | 0.00 | 0.00 | 0.00 | 88 | 1020.7 |
| 20260507050214 | 12 | 198 | 6.4 | 8.0 | 0.00 | 0.00 | 0.00 | 88 | 1020.9 |
| 20260507045711 | 12 | 207 | 3.2 | 3.2 | 0.00 | 0.00 | 0.00 | 87 | 1020.9 |
| 20260507045207 | 12 | 180 | 8.0 | 11.3 | 0.00 | 0.00 | 0.00 | 87 | 1020.8 |
| 20260507044704 | 12 | 195 | 1.6 | 4.8 | 0.00 | 0.00 | 0.00 | 87 | 1020.8 |
| 20260507044201 | 12 | 214 | 1.6 | 1.6 | 0.00 | 0.00 | 0.00 | 87 | 1020.9 |
| 20260507043657 | 12 | 214 | 4.8 | 4.8 | 0.00 | 0.00 | 0.00 | 86 | 1020.9 |
| 20260507043154 | 12 | 199 | 11.3 | 12.9 | 0.00 | 0.00 | 0.00 | 86 | 1020.8 |
| 20260507042650 | 12 | 246 | 1.6 | 1.6 | 0.00 | 0.00 | 0.00 | 86 | 1020.8 |
| 20260507042145 | 12 | 221 | 6.4 | 8.0 | 0.00 | 0.00 | 0.00 | 86 | 1020.9 |
| 20260507041643 | 12 | 219 | 4.8 | 4.8 | 0.00 | 0.00 | 0.00 | 86 | 1020.6 |
| 20260507041139 | 12 | 216 | 6.4 | 8.0 | 0.00 | 0.00 | 0.00 | 86 | 1020.7 |
| 20260507040636 | 12 | 200 | 6.4 | 8.0 | 0.00 | 0.00 | 0.00 | 85 | 1020.5 |
| 20260507040132 | 12 | 178 | 6.4 | 9.7 | 0.00 | 0.00 | 0.00 | 85 | 1020.8 |
| 20260507035628 | 12 | 201 | 6.4 | 8.0 | 0.00 | 0.00 | 0.00 | 85 | 1020.6 |
| 20260507035124 | 12 | 203 | 1.6 | 3.2 | 0.00 | 0.00 | 0.00 | 85 | 1020.5 |
| 20260507034621 | 12 | 190 | 4.8 | 4.8 | 0.00 | 0.00 | 0.00 | 84 | 1020.5 |
| 20260507034119 | 13 | 200 | 3.2 | 3.2 | 0.00 | 0.00 | 0.00 | 84 | 1020.5 |
| 20260507033617 | 13 | 260 | 4.8 | 4.8 | 0.00 | 0.00 | 0.00 | 84 | 1020.5 |
| 20260507033114 | 13 | 196 | 6.4 | 8.0 | 0.00 | 0.00 | 0.00 | 83 | 1020.4 |
| 20260507032611 | 13 | 285 | 4.8 | 4.8 | 0.00 | 0.00 | 0.00 | 83 | 1020.4 |
| 20260507032107 | 13 | 250 | 0.0 | 0.0 | 0.00 | 0.00 | 0.00 | 83 | 1020.3 |
| 20260507031604 | 13 | 246 | 1.6 | 3.2 | 0.00 | 0.00 | 0.00 | 82 | 1020.2 |
| 20260507031101 | 13 | 259 | 1.6 | 1.6 | 0.00 | 0.00 | 0.00 | 82 | 1020.4 |
| 20260507030557 | 13 | 214 | 4.8 | 8.0 | 0.00 | 0.00 | 0.00 | 82 | 1020.4 |
| 20260507030056 | 13 | 252 | 4.8 | 4.8 | 0.00 | 0.00 | 0.00 | 82 | 1020.3 |
| 20260507025552 | 13 | 228 | 3.2 | 3.2 | 0.00 | 0.00 | 0.00 | 82 | 1020.3 |
| 20260507025049 | 13 | 212 | 4.8 | 8.0 | 0.00 | 0.00 | 0.00 | 82 | 1020.3 |
| 20260507024547 | 13 | 179 | 3.2 | 8.0 | 0.00 | 0.00 | 0.00 | 82 | 1020.2 |
| 20260507024044 | 13 | 231 | 4.8 | 9.7 | 0.00 | 0.00 | 0.00 | 82 | 1020.2 |
| 20260507023539 | 13 | 268 | 1.6 | 1.6 | 0.00 | 0.00 | 0.00 | 82 | 1020.3 |
| 20260507023038 | 13 | 276 | 4.8 | 8.0 | 0.00 | 0.00 | 0.00 | 81 | 1020.0 |
| 20260507022534 | 13 | 227 | 0.0 | 1.6 | 0.00 | 0.00 | 0.00 | 81 | 1019.9 |
| 20260507022029 | 13 | 209 | 3.2 | 4.8 | 0.00 | 0.00 | 0.00 | 81 | 1020.1 |
| 20260507021525 | 13 | 210 | 0.0 | 0.0 | 0.00 | 0.00 | 0.00 | 81 | 1020.1 |
| 20260507021022 | 13 | 216 | 8.0 | 11.3 | 0.00 | 0.00 | 0.00 | 81 | 1020.0 |
| 20260507020520 | 13 | 231 | 3.2 | 3.2 | 0.00 | 0.00 | 0.00 | 81 | 1019.8 |
| 20260507020016 | 13 | 206 | 6.4 | 8.0 | 0.00 | 0.00 | 0.00 | 81 | 1019.9 |
| 20260507015515 | 13 | 230 | 4.8 | 8.0 | 0.00 | 0.00 | 0.00 | 81 | 1019.9 |
| 20260507015012 | 13 | 234 | 1.6 | 1.6 | 0.00 | 0.00 | 0.00 | 81 | 1020.2 |
| 20260507014508 | 13 | 243 | 4.8 | 4.8 | 0.00 | 0.00 | 0.00 | 81 | 1020.1 |
| 20260507014004 | 13 | 254 | 1.6 | 3.2 | 0.00 | 0.00 | 0.00 | 82 | 1020.2 |
| 20260507013501 | 13 | 227 | 6.4 | 9.7 | 0.00 | 0.00 | 0.00 | 82 | 1020.2 |
| 20260507012958 | 13 | 212 | 12.9 | 16.1 | 0.00 | 0.00 | 0.00 | 81 | 1020.1 |
| 20260507012455 | 13 | 272 | 3.2 | 4.8 | 0.00 | 0.00 | 0.00 | 81 | 1020.2 |
| 20260507011951 | 13 | 223 | 4.8 | 4.8 | 0.00 | 0.00 | 0.00 | 82 | 1020.0 |
| 20260507011448 | 13 | 175 | 6.4 | 9.7 | 0.00 | 0.00 | 0.00 | 82 | 1020.1 |
| 20260507010944 | 13 | 191 | 8.0 | 9.7 | 0.00 | 0.00 | 0.00 | 81 | 1020.0 |
| 20260507010439 | 13 | 189 | 9.7 | 12.9 | 0.00 | 0.00 | 0.00 | 81 | 1020.2 |
| 20260507005936 | 13 | 212 | 4.8 | 4.8 | 0.00 | 0.00 | 0.00 | 81 | 1020.1 |
| 20260507005433 | 13 | 214 | 8.0 | 9.7 | 0.00 | 0.00 | 0.00 | 81 | 1020.2 |
| 20260507004930 | 13 | 203 | 8.0 | 11.3 | 0.00 | 0.00 | 0.00 | 81 | 1020.1 |
| 20260507004427 | 13 | 155 | 1.6 | 4.8 | 0.00 | 0.00 | 0.00 | 81 | 1020.2 |
| 20260507003924 | 13 | 221 | 8.0 | 12.9 | 0.00 | 0.00 | 0.00 | 81 | 1020.1 |
| 20260507003419 | 13 | 190 | 9.7 | 12.9 | 0.00 | 0.00 | 0.00 | 81 | 1020.4 |
| 20260507002914 | 13 | 199 | 4.8 | 4.8 | 0.00 | 0.00 | 0.00 | 81 | 1020.3 |
| 20260507002411 | 13 | 245 | 6.4 | 9.7 | 0.00 | 0.00 | 0.00 | 81 | 1020.1 |
| 20260507001908 | 13 | 200 | 11.3 | 12.9 | 0.00 | 0.00 | 0.00 | 81 | 1020.2 |
| 20260507001405 | 13 | 197 | 6.4 | 9.7 | 0.00 | 0.00 | 0.00 | 81 | 1020.2 |
| 20260507000902 | 13 | 203 | 6.4 | 8.0 | 0.00 | 0.00 | 0.00 | 80 | 1020.2 |
| 20260507000358 | 13 | 201 | 4.8 | 8.0 | 0.00 | 0.00 | 0.00 | 81 | 1020.2 |
| 20260506235853 | 13 | 228 | 4.8 | 8.0 | 0.00 | 0.00 | 0.00 | 81 | 1020.0 |
| 20260506235351 | 13 | 205 | 6.4 | 9.7 | 0.00 | 0.00 | 0.00 | 80 | 1020.2 |
| 20260506234846 | 13 | 272 | 3.2 | 3.2 | 0.00 | 0.00 | 0.00 | 80 | 1020.1 |
| 20260506234344 | 13 | 205 | 14.5 | 14.5 | 0.00 | 0.00 | 0.00 | 80 | 1020.2 |
| 20260506233842 | 13 | 198 | 12.9 | 14.5 | 0.00 | 0.00 | 0.00 | 81 | 1020.5 |
| 20260506233337 | 13 | 205 | 8.0 | 11.3 | 0.00 | 0.00 | 0.00 | 81 | 1020.4 |
| 20260506232834 | 13 | 210 | 4.8 | 8.0 | 0.00 | 0.00 | 0.00 | 80 | 1020.4 |
| 20260506232330 | 13 | 252 | 4.8 | 9.7 | 0.00 | 0.00 | 0.00 | 80 | 1020.4 |
| 20260506231827 | 13 | 190 | 8.0 | 11.3 | 0.00 | 0.00 | 0.00 | 80 | 1020.5 |
| 20260506231325 | 13 | 188 | 8.0 | 9.7 | 0.00 | 0.00 | 0.00 | 80 | 1020.4 |
| 20260506230822 | 13 | 199 | 14.5 | 17.7 | 0.00 | 0.00 | 0.00 | 80 | 1020.4 |
| 20260506230318 | 13 | 214 | 1.6 | 3.2 | 0.00 | 0.00 | 0.00 | 81 | 1020.4 |
| 20260506225814 | 13 | 181 | 8.0 | 11.3 | 0.00 | 0.00 | 0.00 | 80 | 1020.5 |
| 20260506225312 | 13 | 271 | 4.8 | 8.0 | 0.00 | 0.00 | 0.00 | 80 | 1020.6 |
| 20260506224809 | 13 | 197 | 11.3 | 12.9 | 0.00 | 0.00 | 0.00 | 80 | 1020.3 |
| 20260506224306 | 13 | 187 | 14.5 | 20.9 | 0.00 | 0.00 | 0.00 | 80 | 1020.4 |
| 20260506223802 | 13 | 257 | 4.8 | 12.9 | 0.00 | 0.00 | 0.00 | 80 | 1020.3 |
| 20260506223257 | 13 | 201 | 11.3 | 20.9 | 0.00 | 0.00 | 0.00 | 78 | 1020.4 |
| 20260506222754 | 13 | 264 | 6.4 | 8.0 | 0.00 | 0.00 | 0.00 | 79 | 1020.5 |
| 20260506222249 | 13 | 236 | 14.5 | 16.1 | 0.00 | 0.00 | 0.00 | 78 | 1020.4 |
| 20260506221743 | 13 | 221 | 9.7 | 12.9 | 0.00 | 0.00 | 0.00 | 78 | 1020.6 |
| 20260506221240 | 13 | 238 | 8.0 | 9.7 | 0.00 | 0.00 | 0.00 | 77 | 1020.5 |
| 20260506220737 | 14 | 288 | 4.8 | 4.8 | 0.00 | 0.00 | 0.00 | 77 | 1020.2 |
| 20260506220232 | 13 | 204 | 11.3 | 12.9 | 0.00 | 0.00 | 0.00 | 76 | 1020.5 |
| 20260506215729 | 14 | 163 | 9.7 | 12.9 | 0.00 | 0.00 | 0.00 | 76 | 1020.6 |
| 20260506215225 | 13 | 204 | 11.3 | 14.5 | 0.00 | 0.00 | 0.00 | 76 | 1020.6 |
| 20260506214721 | 14 | 257 | 9.7 | 12.9 | 0.00 | 0.00 | 0.00 | 75 | 1020.4 |
| 20260506214219 | 14 | 210 | 11.3 | 12.9 | 0.00 | 0.00 | 0.00 | 75 | 1020.5 |
| 20260506213717 | 13 | 224 | 8.0 | 12.9 | 0.00 | 0.00 | 0.00 | 76 | 1020.7 |
| 20260506213214 | 13 | 196 | 16.1 | 17.7 | 0.00 | 0.00 | 0.00 | 77 | 1020.5 |
| 20260506212711 | 13 | 199 | 8.0 | 11.3 | 0.00 | 0.00 | 0.00 | 76 | 1020.7 |
| 20260506212206 | 13 | 203 | 9.7 | 11.3 | 0.00 | 0.00 | 0.00 | 76 | 1020.6 |
| 20260506211702 | 14 | 192 | 4.8 | 8.0 | 0.00 | 0.00 | 0.00 | 76 | 1020.7 |
| 20260506211158 | 14 | 196 | 4.8 | 9.7 | 0.00 | 0.00 | 0.00 | 76 | 1020.6 |
| 20260506210655 | 13 | 246 | 6.4 | 8.0 | 0.00 | 0.00 | 0.00 | 76 | 1020.7 |
| 20260506210152 | 14 | 236 | 9.7 | 11.3 | 0.00 | 0.00 | 0.00 | 76 | 1020.5 |
| 20260506205649 | 13 | 284 | 8.0 | 11.3 | 0.00 | 0.00 | 0.00 | 77 | 1020.4 |
| 20260506205144 | 13 | 224 | 8.0 | 12.9 | 0.00 | 0.00 | 0.00 | 77 | 1020.6 |
| 20260506204642 | 13 | 258 | 16.1 | 16.1 | 0.00 | 0.00 | 0.00 | 76 | 1020.5 |
| 20260506204139 | 14 | 259 | 6.4 | 8.0 | 0.00 | 0.00 | 0.00 | 76 | 1020.5 |
| 20260506203637 | 14 | 275 | 4.8 | 4.8 | 0.00 | 0.00 | 0.00 | 76 | 1020.4 |
| 20260506203134 | 13 | 238 | 4.8 | 9.7 | 0.00 | 0.00 | 0.00 | 77 | 1020.6 |
| 20260506202632 | 13 | 197 | 11.3 | 14.5 | 0.00 | 0.00 | 0.00 | 78 | 1020.4 |
| 20260506202127 | 13 | 255 | 6.4 | 11.3 | 0.00 | 0.00 | 0.00 | 77 | 1020.7 |
| 20260506201625 | 13 | 220 | 6.4 | 8.0 | 0.00 | 0.00 | 0.00 | 77 | 1020.3 |
| 20260506201121 | 13 | 231 | 16.1 | 20.9 | 0.00 | 0.00 | 0.00 | 77 | 1020.6 |
| 20260506200618 | 13 | 202 | 9.7 | 9.7 | 0.00 | 0.00 | 0.00 | 78 | 1020.4 |
| 20260506200115 | 13 | 199 | 9.7 | 12.9 | 0.00 | 0.00 | 0.00 | 78 | 1020.4 |
| 20260506195611 | 13 | 190 | 17.7 | 20.9 | 0.00 | 0.00 | 0.00 | 79 | 1020.6 |
| 20260506195108 | 13 | 169 | 14.5 | 17.7 | 0.00 | 0.00 | 0.00 | 79 | 1020.4 |
| 20260506194605 | 13 | 190 | 8.0 | 11.3 | 0.00 | 0.00 | 0.00 | 80 | 1020.2 |
| 20260506194101 | 13 | 194 | 11.3 | 12.9 | 0.00 | 0.00 | 0.00 | 80 | 1020.2 |
| 20260506193559 | 13 | 267 | 6.4 | 8.0 | 0.00 | 0.00 | 0.00 | 80 | 1020.4 |
| 20260506193056 | 13 | 184 | 4.8 | 8.0 | 0.00 | 0.00 | 0.00 | 82 | 1020.5 |
| 20260506192553 | 13 | 217 | 8.0 | 9.7 | 0.00 | 0.00 | 0.00 | 81 | 1020.2 |
| 20260506192049 | 13 | 148 | 8.0 | 11.3 | 0.00 | 0.00 | 0.00 | 82 | 1020.5 |
| 20260506191546 | 12 | 176 | 4.8 | 4.8 | 0.00 | 0.00 | 0.00 | 83 | 1020.3 |
| 20260506191042 | 12 | 176 | 9.7 | 11.3 | 0.00 | 0.00 | 0.00 | 83 | 1020.3 |
| 20260506190539 | 13 | 208 | 8.0 | 11.3 | 0.00 | 0.00 | 0.00 | 82 | 1020.3 |
| 20260506190036 | 13 | 230 | 4.8 | 4.8 | 0.00 | 0.00 | 0.00 | 83 | 1020.1 |
| 20260506185533 | 12 | 240 | 1.6 | 3.2 | 0.00 | 0.00 | 0.00 | 84 | 1020.1 |
| 20260506185030 | 12 | 203 | 4.8 | 4.8 | 0.00 | 0.00 | 0.00 | 84 | 1020.1 |
| 20260506184527 | 12 | 190 | 14.5 | 16.1 | 0.00 | 0.00 | 0.00 | 84 | 1020.1 |
| 20260506184024 | 12 | 186 | 6.4 | 8.0 | 0.00 | 0.00 | 0.00 | 85 | 1020.2 |
| 20260506183520 | 12 | 189 | 16.1 | 17.7 | 0.00 | 0.00 | 0.00 | 85 | 1020.6 |
| 20260506183017 | 12 | 224 | 9.7 | 11.3 | 0.00 | 0.00 | 0.00 | 86 | 1020.4 |
| 20260506182515 | 12 | 231 | 9.7 | 12.9 | 0.00 | 0.00 | 0.00 | 87 | 1020.3 |
| 20260506182011 | 12 | 221 | 6.4 | 8.0 | 0.00 | 0.00 | 0.00 | 88 | 1020.4 |
| 20260506181509 | 11 | 165 | 4.8 | 4.8 | 0.00 | 0.00 | 0.00 | 89 | 1020.2 |
| 20260506181006 | 11 | 240 | 6.4 | 9.7 | 0.00 | 0.00 | 0.00 | 90 | 1020.3 |
| 20260506180503 | 12 | 259 | 3.2 | 4.8 | 0.00 | 0.00 | 0.00 | 91 | 1020.4 |
| 20260506175959 | 12 | 260 | 4.8 | 8.0 | 0.00 | 0.00 | 0.00 | 90 | 1020.1 |
| 20260506175455 | 12 | 159 | 6.4 | 9.7 | 0.00 | 0.00 | 0.00 | 90 | 1019.9 |
| 20260506174952 | 12 | 202 | 8.0 | 9.7 | 0.00 | 0.00 | 0.00 | 90 | 1019.8 |
| 20260506174451 | 12 | 203 | 9.7 | 12.9 | 0.00 | 0.00 | 0.00 | 90 | 1019.9 |
| 20260506173946 | 12 | 200 | 4.8 | 8.0 | 0.00 | 0.00 | 0.00 | 91 | 1019.9 |
| 20260506173444 | 12 | 163 | 11.3 | 12.9 | 0.00 | 0.00 | 0.00 | 91 | 1019.9 |
| 20260506172941 | 12 | 188 | 4.8 | 4.8 | 0.00 | 0.00 | 0.00 | 92 | 1020.2 |
| 20260506172438 | 11 | 202 | 3.2 | 4.8 | 0.00 | 0.00 | 0.00 | 93 | 1020.2 |
| 20260506171934 | 11 | 182 | 8.0 | 9.7 | 0.00 | 0.00 | 0.00 | 93 | 1020.2 |
| 20260506171432 | 11 | 192 | 8.0 | 11.3 | 0.00 | 0.00 | 0.00 | 93 | 1020.0 |
| 20260506170929 | 11 | 200 | 8.0 | 9.7 | 0.00 | 0.00 | 0.00 | 93 | 1020.2 |
| 20260506170425 | 11 | 199 | 6.4 | 8.0 | 0.00 | 0.00 | 0.00 | 93 | 1020.4 |
| 20260506165919 | 11 | 222 | 4.8 | 8.0 | 0.00 | 0.00 | 0.00 | 93 | 1020.2 |
| 20260506165416 | 11 | 210 | 4.8 | 8.0 | 0.00 | 0.00 | 0.00 | 93 | 1020.1 |
| 20260506164907 | 11 | 198 | 12.9 | 16.1 | 0.00 | 0.00 | 0.00 | 92 | 1020.1 |
| 20260506164403 | 11 | 189 | 3.2 | 3.2 | 0.00 | 0.00 | 0.00 | 92 | 1020.0 |
| 20260506163901 | 11 | 216 | 3.2 | 4.8 | 0.00 | 0.00 | 0.00 | 92 | 1020.1 |
| 20260506163356 | 11 | 250 | 4.8 | 8.0 | 0.00 | 0.00 | 0.00 | 92 | 1019.9 |
| 20260506162851 | 11 | 211 | 4.8 | 4.8 | 0.00 | 0.00 | 0.00 | 92 | 1019.9 |
| 20260506162349 | 11 | 202 | 14.5 | 16.1 | 0.00 | 0.00 | 0.00 | 91 | 1019.9 |
| 20260506161846 | 12 | 261 | 6.4 | 9.7 | 0.00 | 0.00 | 0.00 | 92 | 1019.7 |
| 20260506161344 | 11 | 205 | 1.6 | 3.2 | 0.00 | 0.00 | 0.00 | 92 | 1019.5 |
| 20260506160842 | 11 | 190 | 11.3 | 12.9 | 0.00 | 0.00 | 0.00 | 93 | 1019.5 |
| 20260506160338 | 11 | 169 | 8.0 | 9.7 | 0.00 | 0.00 | 0.00 | 94 | 1019.4 |
| 20260506155836 | 11 | 193 | 14.5 | 16.1 | 0.00 | 0.00 | 0.00 | 94 | 1019.4 |
| 20260506155332 | 11 | 187 | 9.7 | 12.9 | 0.00 | 0.00 | 0.00 | 95 | 1019.5 |
| 20260506153445 | 11 | 187 | 16.1 | 20.9 | 0.00 | 0.00 | 0.00 | 97 | 1019.6 |
| 20260506152942 | 11 | 188 | 6.4 | 8.0 | 0.00 | 0.00 | 0.00 | 97 | 1019.8 |
| 20260506152439 | 11 | 242 | 3.2 | 4.8 | 0.00 | 0.00 | 0.00 | 97 | 1019.9 |
| 20260506151938 | 11 | 268 | 6.4 | 9.7 | 0.00 | 0.00 | 0.00 | 97 | 1019.9 |
| 20260506151434 | 11 | 195 | 4.8 | 8.0 | 0.00 | 0.00 | 0.00 | 97 | 1019.7 |
| 20260506150932 | 11 | 265 | 0.0 | 0.0 | 0.00 | 0.00 | 0.00 | 97 | 1019.7 |
| 20260506150428 | 11 | 268 | 4.8 | 4.8 | 0.00 | 0.00 | 0.00 | 96 | 1019.5 |
| 20260506145925 | 11 | 193 | 4.8 | 8.0 | 0.00 | 0.00 | 0.00 | 96 | 1019.5 |
| 20260506145421 | 11 | 193 | 6.4 | 9.7 | 0.00 | 0.00 | 0.00 | 96 | 1019.1 |
| 20260506144919 | 11 | 194 | 9.7 | 11.3 | 0.00 | 0.00 | 0.00 | 96 | 1019.2 |
| 20260506144415 | 11 | 213 | 0.0 | 1.6 | 0.00 | 0.00 | 0.00 | 96 | 1019.3 |
| 20260506143914 | 11 | 177 | 8.0 | 9.7 | 0.00 | 0.00 | 0.00 | 96 | 1019.5 |
| 20260506143410 | 11 | 230 | 3.2 | 4.8 | 0.00 | 0.00 | 0.00 | 96 | 1019.6 |
| 20260506142909 | 11 | 219 | 4.8 | 4.8 | 0.00 | 0.00 | 0.00 | 95 | 1019.6 |
| 20260506142406 | 11 | 242 | 8.0 | 9.7 | 0.00 | 0.00 | 0.00 | 95 | 1019.6 |
| 20260506141904 | 11 | 232 | 1.6 | 3.2 | 0.00 | 0.00 | 0.00 | 95 | 1019.4 |
| 20260506141402 | 11 | 228 | 1.6 | 3.2 | 0.00 | 0.00 | 0.00 | 95 | 1019.7 |
| 20260506140900 | 11 | 222 | 1.6 | 3.2 | 0.00 | 0.00 | 0.00 | 95 | 1019.2 |
| 20260506140356 | 11 | 186 | 4.8 | 9.7 | 0.00 | 0.00 | 0.00 | 94 | 1019.0 |
| 20260506135854 | 11 | 193 | 8.0 | 9.7 | 0.00 | 0.00 | 0.00 | 94 | 1019.4 |
| 20260506135350 | 11 | 227 | 4.8 | 4.8 | 0.00 | 0.00 | 0.00 | 94 | 1019.2 |
| 20260506134847 | 11 | 192 | 3.2 | 3.2 | 0.00 | 0.00 | 0.00 | 94 | 1019.2 |
| 20260506134343 | 11 | 258 | 1.6 | 1.6 | 0.00 | 0.00 | 0.00 | 94 | 1019.4 |
| 20260506133840 | 11 | 240 | 3.2 | 3.2 | 0.00 | 0.00 | 0.00 | 93 | 1019.3 |
| 20260506133337 | 11 | 201 | 6.4 | 8.0 | 0.00 | 0.00 | 0.00 | 93 | 1019.1 |
| 20260506132833 | 11 | 209 | 3.2 | 4.8 | 0.00 | 0.00 | 0.00 | 93 | 1019.1 |
| 20260506132331 | 11 | 262 | 3.2 | 3.2 | 0.00 | 0.00 | 0.00 | 93 | 1019.1 |
| 20260506131829 | 11 | 230 | 6.4 | 8.0 | 0.00 | 0.00 | 0.00 | 93 | 1019.1 |
| 20260506131325 | 11 | 283 | 1.6 | 1.6 | 0.00 | 0.00 | 0.00 | 93 | 1019.0 |
| 20260506130822 | 11 | 265 | 8.0 | 9.7 | 0.00 | 0.00 | 0.00 | 93 | 1018.9 |
| 20260506130318 | 11 | 216 | 4.8 | 9.7 | 0.00 | 0.00 | 0.00 | 92 | 1019.1 |
| 20260506125816 | 11 | 208 | 4.8 | 8.0 | 0.00 | 0.00 | 0.00 | 92 | 1018.7 |
| 20260506125314 | 11 | 207 | 6.4 | 8.0 | 0.00 | 0.00 | 0.00 | 92 | 1018.5 |
| 20260506124813 | 11 | 216 | 9.7 | 11.3 | 0.00 | 0.00 | 0.00 | 92 | 1018.6 |
| 20260506124309 | 11 | 221 | 1.6 | 3.2 | 0.00 | 0.00 | 0.00 | 92 | 1018.8 |
| 20260506123807 | 11 | 210 | 9.7 | 11.3 | 0.00 | 0.00 | 0.00 | 91 | 1018.6 |
| 20260506123306 | 11 | 202 | 11.3 | 12.9 | 0.00 | 0.00 | 0.00 | 91 | 1018.8 |
| 20260506122802 | 11 | 200 | 8.0 | 9.7 | 0.00 | 0.00 | 0.00 | 91 | 1018.6 |
| 20260506122259 | 11 | 218 | 3.2 | 3.2 | 0.00 | 0.00 | 0.00 | 91 | 1018.5 |
| 20260506121757 | 11 | 218 | 3.2 | 4.8 | 0.00 | 0.00 | 0.00 | 91 | 1018.5 |
| 20260506121254 | 11 | 212 | 6.4 | 8.0 | 0.00 | 0.00 | 0.00 | 91 | 1018.4 |
| 20260506120751 | 11 | 190 | 6.4 | 8.0 | 0.00 | 0.00 | 0.00 | 91 | 1018.6 |
| 20260506120249 | 11 | 161 | 4.8 | 4.8 | 0.00 | 0.00 | 0.00 | 91 | 1018.4 |
| 20260506115746 | 11 | 240 | 0.0 | 0.0 | 0.00 | 0.00 | 0.00 | 91 | 1018.5 |
| 20260506115244 | 11 | 178 | 9.7 | 11.3 | 0.00 | 0.00 | 0.00 | 91 | 1018.4 |
| 20260506114742 | 11 | 201 | 4.8 | 4.8 | 0.00 | 0.00 | 0.00 | 91 | 1018.3 |
| 20260506114239 | 11 | 217 | 4.8 | 4.8 | 0.00 | 0.00 | 0.00 | 91 | 1018.3 |
| 20260506113738 | 11 | 207 | 9.7 | 11.3 | 0.00 | 0.00 | 0.00 | 91 | 1018.2 |
| 20260506113235 | 11 | 191 | 8.0 | 9.7 | 0.00 | 0.00 | 0.00 | 91 | 1018.2 |
| 20260506112731 | 11 | 198 | 9.7 | 11.3 | 0.00 | 0.00 | 0.00 | 91 | 1018.1 |
| 20260506112229 | 11 | 203 | 6.4 | 8.0 | 0.00 | 0.00 | 0.00 | 91 | 1018.2 |
| 20260506111726 | 11 | 197 | 3.2 | 4.8 | 0.00 | 0.00 | 0.00 | 91 | 1018.0 |
| 20260506111224 | 11 | 205 | 8.0 | 11.3 | 0.00 | 0.00 | 0.00 | 91 | 1018.1 |
| 20260506110721 | 11 | 194 | 8.0 | 12.9 | 0.00 | 0.00 | 0.00 | 91 | 1017.9 |
| 20260506110218 | 11 | 226 | 0.0 | 1.6 | 0.00 | 0.00 | 0.00 | 92 | 1018.0 |
| 20260506105714 | 11 | 227 | 6.4 | 8.0 | 0.00 | 0.00 | 0.00 | 92 | 1018.1 |
| 20260506105211 | 11 | 237 | 3.2 | 3.2 | 0.00 | 0.00 | 0.00 | 92 | 1017.7 |
| 20260506104710 | 11 | 254 | 6.4 | 8.0 | 0.00 | 0.00 | 0.00 | 92 | 1017.8 |
| 20260506104207 | 11 | 273 | 3.2 | 3.2 | 0.00 | 0.00 | 0.00 | 92 | 1018.0 |
| 20260506103704 | 11 | 261 | 0.0 | 0.0 | 0.00 | 0.00 | 0.00 | 92 | 1017.8 |
| 20260506103201 | 11 | 278 | 0.0 | 1.6 | 0.00 | 0.00 | 0.00 | 92 | 1017.9 |
| 20260506102659 | 11 | 253 | 1.6 | 1.6 | 0.00 | 0.00 | 0.00 | 92 | 1018.0 |
| 20260506102156 | 11 | 254 | 3.2 | 3.2 | 0.00 | 0.00 | 0.00 | 92 | 1017.9 |
| 20260506101653 | 11 | 209 | 3.2 | 4.8 | 0.00 | 0.00 | 0.00 | 92 | 1017.9 |
| 20260506101150 | 11 | 212 | 4.8 | 8.0 | 0.00 | 0.00 | 0.00 | 91 | 1017.8 |
| 20260506100648 | 11 | 247 | 8.0 | 11.3 | 0.00 | 0.00 | 0.00 | 91 | 1017.7 |
| 20260506100146 | 11 | 266 | 8.0 | 11.3 | 0.00 | 0.00 | 0.00 | 91 | 1017.7 |
| 20260506095644 | 11 | 221 | 4.8 | 8.0 | 0.00 | 0.00 | 0.00 | 91 | 1017.8 |
| 20260506095140 | 11 | 252 | 6.4 | 9.7 | 0.00 | 0.00 | 0.00 | 91 | 1017.5 |
| 20260506094638 | 11 | 251 | 4.8 | 4.8 | 0.00 | 0.00 | 0.00 | 91 | 1017.4 |
| 20260506094136 | 11 | 203 | 1.6 | 3.2 | 0.00 | 0.00 | 0.00 | 91 | 1017.6 |
| 20260506093634 | 11 | 257 | 1.6 | 3.2 | 0.00 | 0.00 | 0.00 | 91 | 1017.4 |
| 20260506093131 | 11 | 253 | 0.0 | 0.0 | 0.00 | 0.00 | 0.00 | 91 | 1017.5 |
| 20260506092628 | 11 | 233 | 1.6 | 3.2 | 0.00 | 0.00 | 0.00 | 91 | 1017.5 |
| 20260506092125 | 11 | 258 | 0.0 | 0.0 | 0.00 | 0.00 | 0.00 | 91 | 1017.6 |
| 20260506091623 | 11 | 254 | 4.8 | 4.8 | 0.00 | 0.00 | 0.00 | 91 | 1017.3 |
| 20260506091121 | 11 | 249 | 0.0 | 0.0 | 0.00 | 0.00 | 0.00 | 90 | 1017.3 |
| 20260506090619 | 11 | 245 | 1.6 | 3.2 | 0.00 | 0.00 | 0.00 | 90 | 1017.2 |
| 20260506090114 | 11 | 264 | 0.0 | 1.6 | 0.00 | 0.00 | 0.00 | 90 | 1017.3 |
| 20260506085612 | 11 | 248 | 3.2 | 3.2 | 0.00 | 0.00 | 0.00 | 90 | 1017.2 |
| 20260506085108 | 12 | 274 | 1.6 | 1.6 | 0.00 | 0.00 | 0.00 | 89 | 1017.3 |
| 20260506084605 | 12 | 216 | 3.2 | 3.2 | 0.00 | 0.00 | 0.00 | 89 | 1017.0 |
| 20260506084101 | 12 | 252 | 3.2 | 3.2 | 0.00 | 0.00 | 0.00 | 89 | 1017.0 |
| 20260506083558 | 12 | 278 | 0.0 | 0.0 | 0.00 | 0.00 | 0.00 | 89 | 1017.0 |
| 20260506083055 | 12 | 247 | 1.6 | 3.2 | 0.00 | 0.00 | 0.00 | 89 | 1017.1 |
| 20260506082552 | 12 | 252 | 1.6 | 3.2 | 0.00 | 0.00 | 0.00 | 88 | 1016.9 |
| 20260506082048 | 12 | 214 | 3.2 | 3.2 | 0.00 | 0.00 | 0.00 | 88 | 1016.9 |
| 20260506081546 | 12 | 253 | 0.0 | 0.0 | 0.00 | 0.00 | 0.00 | 88 | 1016.7 |
| 20260506081043 | 12 | 227 | 3.2 | 4.8 | 0.00 | 0.00 | 0.00 | 88 | 1016.9 |
| 20260506080541 | 12 | 272 | 1.6 | 1.6 | 0.00 | 0.00 | 0.00 | 87 | 1016.7 |